Home > Weather > Nizhny Novgorod > Past weeks

Flag for Russia Weather for the Past 2 Weeks in Nizhny Novgorod, Russia

Now
30 °F

Clear.


Feels Like: 19 °F
Forecast: 24 / 35 °F
Wind: 15 mph from Southwest

Location: Nizhny Novgorod/Strigino

Current Time: Feb 9, 2016 at 7:47:51 PM

Latest Report: Feb 9, 2016 at 7:00 PM


Visibility: 10 mi

Pressure: 30.07 "Hg

Humidity: 47%

Dew point: 12 °F

Location of Nizhny NovgorodLocation

Historic Weather in Nizhny Novgorod — Graph

°F

Nizhny Novgorod Temperature Yesterday

Maximum temperature yesterday: 34 °F (at 1:30 PM)
Minimum temperature yesterday: 27 °F (at 12:00 AM)
Average temperature yesterday: 30 °F

High & Low Weather Summary for the Past Weeks

 TemperatureHumidityPressure
High37 °F (Jan 31, 2:00 PM)100% (Feb 3, 4:00 AM)30.27 "Hg (Feb 3, 4:00 AM)
Low-13 °F (Jan 25, 9:00 PM)41% (Feb 9, 5:30 PM)29.30 "Hg (Feb 1, 6:30 AM)
Average26 °F81%29.78 "Hg
* Reported Jan 25 6:00 PM — Feb 9 6:30 PM, Nizhny Novgorod, Weather by CustomWeather, © 2016

Note: Actual official high and low records may vary slightly from our data, if they occured in-between our weather recording intervals... More about our weather records

Advertising

Nizhny Novgorod Weather History for the Previous 24 Hours

 ConditionsComfort  
Time TempWeatherWind HumidityBarometerVisibility
6:30 PM
Tue, Feb 9
30 °FClear.13 mph43%30.07 "Hg10 mi
6:00 PM32 °FClear.10 mph44%30.07 "Hg10 mi
5:30 PM34 °FSunny.10 mph41%30.07 "Hg10 mi
5:00 PM34 °FSunny.8 mph44%30.07 "Hg10 mi
4:30 PM36 °FSunny.8 mph44%30.07 "Hg10 mi
4:00 PM36 °FSunny.8 mph44%30.07 "Hg10 mi
3:30 PM36 °FSunny.8 mph44%30.07 "Hg10 mi
3:00 PM36 °FSunny.10 mph48%30.07 "Hg10 mi
2:30 PM36 °FSunny.8 mph48%30.07 "Hg10 mi
1:30 PM34 °FPassing clouds.8 mph56%30.07 "HgN/A
1:00 PM32 °FSunny.10 mph60%30.07 "Hg10 mi
12:30 PM30 °FSunny.8 mph64%30.09 "Hg10 mi
12:00 PM28 °FSunny.10 mph69%30.09 "Hg10 mi
11:00 AM27 °FSunny.8 mph74%30.09 "Hg10 mi
10:30 AM27 °FSunny.8 mph69%30.09 "Hg10 mi
10:00 AM25 °FPassing clouds.6 mph74%30.09 "HgN/A
9:30 AM25 °FSunny.6 mph74%30.09 "Hg10 mi
9:00 AM25 °FSunny.8 mph74%30.09 "Hg10 mi
8:30 AM23 °FClear.8 mph80%30.09 "Hg10 mi
8:00 AM25 °FClear.8 mph74%30.09 "Hg10 mi
7:30 AM25 °FClear.8 mph74%30.09 "Hg10 mi
6:30 AM25 °FClear.8 mph74%30.09 "Hg10 mi
6:00 AM25 °FClear.8 mph74%30.09 "Hg10 mi
5:30 AM25 °FClear.8 mph74%30.09 "Hg10 mi
5:00 AM25 °FClear.8 mph80%30.09 "Hg10 mi
4:30 AM27 °FClear.8 mph69%30.09 "Hg10 mi
4:00 AM27 °FClear.8 mph74%30.09 "Hg10 mi
3:30 AM27 °FClear.8 mph69%30.09 "Hg10 mi
3:00 AM27 °FClear.10 mph74%30.09 "Hg10 mi
2:30 AM27 °FClear.8 mph69%30.09 "Hg10 mi
2:00 AM27 °FClear.8 mph69%30.09 "Hg10 mi
1:00 AM27 °FClear.6 mph69%30.09 "Hg10 mi
12:30 AM28 °FClear.8 mph64%30.09 "Hg10 mi
12:00 AM28 °FClear.6 mph64%30.09 "Hg10 mi
11:30 PM
Mon, Feb 8
28 °FClear.8 mph64%30.09 "Hg10 mi
11:00 PM28 °FClear.6 mph64%30.09 "Hg10 mi
10:30 PM28 °FClear.6 mph64%30.09 "Hg10 mi
10:00 PM28 °FClear.6 mph69%30.09 "Hg10 mi
9:30 PM28 °FClear.6 mph69%30.09 "Hg10 mi
9:00 PM28 °FClear.6 mph69%30.09 "Hg10 mi
8:30 PM30 °FClear.8 mph64%30.09 "Hg10 mi
8:00 PM30 °FPassing clouds.8 mph64%30.09 "HgN/A
7:30 PM30 °FClear.8 mph59%30.09 "Hg10 mi
7:00 PM30 °FClear.8 mph59%30.09 "Hg10 mi
Weather by CustomWeather, © 2016

See weather overviewHow to use our weather pages